Mount Washington, New Hampshire, United States (03589)
Lat: 44.69N, Lon: 71.39W
Wx Zone: NHZ002
Local Info
Past Weather Observations for Today

NOTE: This archive is for the closest National Weather Service station to Mount Washington. Information may differ from the station used for current weather conditions.

Click here for Long-term Archive

Time Weather Temperature Dewpoint Humidity Pressure Winds Precip Visibility
09:52
Overcast
30°F / -1°C 16°F / -9°C 55% 29.68 in
(1005 mb)
W 10.4 mph
(W 17 kph)
- 10SM
09:29
Overcast
28°F / -2°C 16°F / -9°C 59% 29.68 in
(1005 mb)
Calm - 10SM
09:07
Overcast
28°F / -2°C 16°F / -9°C 59% 29.68 in
(1005 mb)
WNW 5.8 mph
(WNW 9 kph)
- 10SM
08:52
Overcast
28°F / -2°C 16°F / -9°C 59% 29.68 in
(1005 mb)
Variable 4.6 mph
(Variable 7 kph)
0.00 in
(0.00 mm)
10SM
08:35
Overcast
28°F / -2°C 16°F / -9°C 59% 29.68 in
(1005 mb)
WNW 9.2 mph
(WNW 15 kph)
0.00 in
(0.00 mm)
10SM
08:21
Overcast
28°F / -2°C 16°F / -9°C 59% 29.68 in
(1005 mb)
WNW 6.9 mph
(WNW 11 kph)
0.00 in
(0.00 mm)
10SM
07:52
Overcast
28°F / -2°C 16°F / -9°C 59% 29.68 in
(1005 mb)
NW 8.1 mph
(NW 13 kph)
- 10SM
07:43
Overcast
28°F / -2°C 16°F / -9°C 59% 29.68 in
(1005 mb)
Variable 5.8 mph
(Variable 9 kph)
- 10SM
06:52
Overcast
28°F / -2°C 18°F / -8°C 64% 29.65 in
(1004 mb)
W 9.2 mph
(W 15 kph)
0.00 in
(0.00 mm)
8SM
05:52
Overcast
28°F / -2°C 19°F / -7°C 69% 29.65 in
(1004 mb)
Variable 6.9 mph
(Variable 11 kph)
- 10SM
04:52
Overcast
30°F / -1°C 19°F / -7°C 64% 29.62 in
(1003 mb)
WNW 9.2 mph
(WNW 15 kph)
0.00 in
(0.00 mm)
10SM
04:09
Overcast
Light Snow
30°F / -1°C 23°F / -5°C 75% 29.62 in
(1003 mb)
Variable 5.8 mph
(Variable 9 kph)
0.00 in
(0.00 mm)
9SM
03:52
Overcast
30°F / -1°C 21°F / -6°C 69% 29.59 in
(1002 mb)
Variable 6.9 mph
(Variable 11 kph)
- 10SM
02:52
Overcast
32°F / 0°C 25°F / -4°C 75% 29.59 in
(1002 mb)
WNW 8.1 mph
(WNW 13 kph)
0.00 in
(0.00 mm)
10SM
02:22
Overcast
Light Snow
32°F / 0°C 25°F / -4°C 75% 29.59 in
(1002 mb)
W 8.1 mph
(W 13 kph)
0.00 in
(0.00 mm)
6SM
01:59
Mostly Cloudy
34°F / 1°C 25°F / -4°C 70% 29.56 in
(1001 mb)
Variable 6.9 mph
(Variable 11 kph)
- 10SM
01:52
Mostly Cloudy
34°F / 1°C 25°F / -4°C 70% 29.56 in
(1001 mb)
NW 6.9 mph
(NW 11 kph)
- 10SM
01:00
Mostly Cloudy
34°F / 1°C 25°F / -4°C 70% 29.56 in
(1001 mb)
Variable 5.8 mph
(Variable 9 kph)
- 10SM
00:52
Overcast
34°F / 1°C 25°F / -4°C 70% 29.56 in
(1001 mb)
Variable 4.6 mph
(Variable 7 kph)
- 10SM
00:50
Overcast
34°F / 1°C 25°F / -4°C 70% 29.56 in
(1001 mb)
Variable 6.9 mph
(Variable 11 kph)
- 10SM
00:15
Overcast
34°F / 1°C 25°F / -4°C 70% 29.59 in
(1002 mb)
Variable 6.9 mph
(Variable 11 kph)
- 10SM
Time Weather Temperature Dewpoint Humidity Pressure Winds Precip Visibility


Weather for websites

WeatherForYou.com, LLC is not responsible for any damages or problems caused by this service. Current weather conditions are obtained from the closest station including government and personal stations which may have varying degrees of accuracy. Weather forecasts are derived from the NOAA NDFD. Like all things, this site belongs to Jesus Christ... He just trusts me to maintain it. If you have any questions or comments email webmaster@weatherforyou.com

Copyright © 2015, WeatherForYou.com LLC. All rights reserved.